ROBUSTA-3A (MEDITERRAN*)

Last updated on Sun Dec 14 2025 00:03:50 GMT+0000 (Coordinated Universal Time)

1 60243U 24128J 25346.93166704 .00011022 00000+0 69595-3 0 9990 2 60243 61.9859 145.2908 0056146 91.0076 269.7451 15.08219542 78296
UTC large
Height (km)
Speed (km/s)
/
Latitude / Longitude
Inclination (degrees)
Orbital Period (minutes)
Azimuth
Elevation
Range (km)
Doppler Factor

Next 0 passes for location: London (51.5072 / 0.1276)

Sorry there are no passes over London.